Regional Weather Roundup
Issued by NWS

Home | Current Version | Previous Version | Graphics & Text | Print | Product List | Glossary On
Versions: 1 2 3 4 5 6 7 8 9 10 11 12 13 14 15 16 17 18 19 20 21 22 23 24 25 26 27 28 29 30 31 32 33 34 35 36 37 38 39 40 41 42 43 44 45 46 47 48 49 50
000
ASUS43 KMKX 272200
RWRWI

WISCONSIN REGIONAL WEATHER ROUNDUP
NATIONAL WEATHER SERVICE MILWAUKEE/SULLIVAN WI
500 PM CDT THU JUL 27 2017

NOTE: "FAIR" INDICATES FEW OR NO CLOUDS BELOW 12,000 FEET WITH NO
SIGNIFICANT WEATHER AND/OR OBSTRUCTIONS TO VISIBILITY.

WIZ001-002-006>008-014>016-023>028-272300-
NORTHWEST WISCONSIN

CITY           SKY/WX    TMP DP  RH WIND       PRES   REMARKS
SUPERIOR ARPT  NOT AVBL
ASHLAND          N/A     76  62  62 NE8       30.07F
HAYWARD        SUNNY     81  55  40 VRB6      30.07F HX  81
SIREN          PTSUNNY   80  57  44 NE6       30.06F HX  81
CUMBERLAND     MOSUNNY   79  54  41 N8        30.06F
RICE LAKE      MOSUNNY   82  56  40 N8        30.06F HX  82
CHETEK         SUNNY     82  59  46 N6        30.04F HX  82
LADYSMITH      SUNNY     80  58  47 NW7       30.07F HX  80
EAU CLAIRE     NOT AVBL
MENOMONIE      MOSUNNY   82  57  42 N5        30.03F HX  82
NEW RICHMOND   SUNNY     82  57  43 NE7       30.05F HX  81
OSCEOLA        MOSUNNY   83  58  42 N8        30.07F HX  83
$$

WIZ003>005-009-010-017-018-272300-
NORTH CENTRAL WISCONSIN

CITY           SKY/WX    TMP DP  RH WIND       PRES   REMARKS
MANITOWISH WTR CLOUDY    75  60  58 N9        30.07S
ARBOR VITAE    CLOUDY    77  59  53 NE8       30.06F
WOODRUFF       CLOUDY    77  59  53 NE8       30.06F
RHINELANDER    CLOUDY    77  58  51 E7        30.07F
EAGLE RIVER    CLOUDY    77  55  46 E5        30.06F
LAND O LAKES   CLOUDY    76  53  45 NE10      30.09S
PHILLIPS       PTSUNNY   77  60  55 N3        30.05F
TOMAHAWK         N/A     78  57  47 NE5       30.06S
MEDFORD        PTSUNNY   77  58  50 CALM      30.05F
MERRILL        PTSUNNY   79  61  53 NE8       30.05S HX  80
$$

WIZ029-030-035-036-043>047-272300-
CENTRAL WISCONSIN

CITY           SKY/WX    TMP DP  RH WIND       PRES   REMARKS
WAUSAU         PTSUNNY   80  58  46 VRB3      30.02F HX  80
MOSINEE        PTSUNNY   77  61  57 NE7       30.04F
MARSHFIELD     MOSUNNY   81  59  47 E6        30.03F HX  81
STEVENS POINT  PTSUNNY   79  58  47 E9        30.03F HX  80
WAUPACA        SUNNY     84  56  37 E3        30.02F HX  83
WAUTOMA        MOSUNNY   80  59  48 E12       30.01F HX  81
WISC RAPIDS    MOSUNNY   82  60  47 E8        30.03F HX  82
CAMP DOUGLAS   NOT AVBL
$$

WIZ011>013-019>022-031-037>040-048>050-272300-
NORTHEAST WISCONSIN

CITY           SKY/WX    TMP DP  RH WIND       PRES   REMARKS
ANTIGO         CLOUDY    72  61  66 E6        30.06S
SHAWANO        PTSUNNY   82  58  43 E3        30.01F HX  82
OCONTO         PTSUNNY   77  59  54 E7        30.01F
STURGEON BAY     N/A     77  59  53 NE10      30.01F
GREEN BAY      SUNNY     79  62  56 NE10      30.01F HX  80
MANITOWOC      NOT AVBL
APPLETON       MOSUNNY   79  48  34 NE12      30.01F
CLINTONVILLE   PTSUNNY  N/A N/A N/A CALM      30.01F
OSHKOSH        SUNNY     79  60  52 NE9       30.01S HX  80
$$

WIZ032>034-041-042-053>061-272300-
SOUTHWEST WISCONSIN

CITY           SKY/WX    TMP DP  RH WIND       PRES   REMARKS
LA CROSSE      PTSUNNY   85  63  47 VRB3      29.99F HX  86
SPARTA         CLOUDY    80  61  52 CALM      30.01S HX  81
VIROQUA        SUNNY     79  64  58 N7        30.02F HX  81
BOSCOBEL       SUNNY     84  61  45 NE5       29.99F HX  84
PRAIRIE DU CHI MOSUNNY   82  57  43 E6        29.99S HX  81
PLATTEVILLE    SUNNY     81  64  55 N13       30.00S HX  82
$$

WIZ056-057-062-063-064-067-068-272300-
SOUTH CENTRAL WISCONSIN

CITY           SKY/WX    TMP DP  RH WIND       PRES   REMARKS
REEDSBURG      PTSUNNY   80  62  55 NE7       29.99F HX  81
BARABOO/DELLS  MOSUNNY   81  60  48 NE8       30.00S HX  81
LONE ROCK      NOT AVBL
MINERAL POINT  SUNNY     82  61  47 NE10      30.01S HX  83
MADISON        PTSUNNY   82  62  50 NE14G20   29.99S HX  83
MIDDLETON      PTSUNNY   82  62  51 NE8       30.00S HX  83
WATERTOWN      MOSUNNY   80  64  58 NE9       29.99S HX  81
MONROE         SUNNY     77  63  61 NE8       29.99R
JANESVILLE     MOSUNNY   82  63  51 NE12      29.96F HX  83
$$

WIZ051-052-058>065-066-070>072-272300-
SOUTHEAST WISCONSIN

CITY           SKY/WX    TMP DP  RH WIND       PRES   REMARKS
MILWAUKEE      MOSUNNY   76  60  57 N15G28    29.98S
WAUKESHA       SUNNY     77  52  41 N14G20    30.00S
MILWAUKEE/TIMM SUNNY     79  48  34 N15       30.00S
RACINE         SUNNY     75  62  64 N18G30    29.99F
KENOSHA        SUNNY     78  55  44 NE16G26   29.98S
FOND DU LAC    SUNNY     80  55  42 NE12      30.01S HX  80
SHEBOYGAN      SUNNY     76  59  55 NE15      30.01S
WEST BEND      SUNNY     77  50  38 NE16      30.01S
JUNEAU         SUNNY     79  59  50 N10       30.01F HX  80
$$

LSZ147-162-272300-
LAKE SUPERIOR

STATION/POSITION TIME  TEMP    WIND        PRES    WAVE
                       AIR SEA DIR/SP/G            HT/PER
                 (UTC) (F)     (DEG/KT/KT) (MB)    (FT/S)
W MID LAKE BUOY  2050   56 54   80/  6/  6 1018.9F   0
DEVILS ISLAND    2100   62      40/  4/  5 1019.2S
SAXON HARBOR     2140   69      20/  4/  6 1018.3F
$$

LMZ867-665-643>646-272300-
LAKE MICHIGAN

STATION/POSITION TIME  TEMP    WIND        PRES    WAVE
                       AIR SEA DIR/SP/G            HT/PER
                 (UTC) (F)     (DEG/KT/KT) (MB)    (FT/S)
CHAMBERS ISLAND  2140   74      20/ 13/ 15 1015.6F
S GREEN BAY BUOY 2130   73 72   60/ 10/ 10 1016.2F
N MID LAKE BUOY  2050   69 69  280/  4/  6 1016.9F   1
NORTHPORT PIER   2140   73     360/ 11/ 14 1016.3S
KEWAUNEE LAKESHO 2130   73      30/  3/  5 1015.7F
SHEBOYGAN LAKESH 2100   70      10/ 19/ 21 1015.7F
PORT WASHINGTON  2130   78      30/ 10/ 17 1016.3S
ATWATER BUOY     2009   70 69   10/ 14/ 16 1015.7R
MILWAUKEE LAKESH 2150   72      10/ 18/ 22   N/A
S MID LAKE BUOY  2050   70 71   10/ 17/ 21 1013.6F   3/ 4
KENOSHA   LAKESH 2100   73      10/ 22/ 24 1014.6
$$

TC  - TEMPERATURE IN CELSIUS
VSB - VISIBILITY IN STATUTE MILES
WCI - WIND CHILL INDEX
HX  - HEAT INDEX





USA.gov is the U.S. government's official web portal to all federal, state and local government web resources and services.